This is the latest recevied weather packets stored in our database for station/object NR6G-12. If no packets are shown the sender has not sent any weather packets the latest 10 day(s).
| Time | Temp. | Humidity | Pressure | Rain* | Wind** | Luminosity | Snow |
|---|---|---|---|---|---|---|---|
| 1777654620 | 17.78° C | 62% | 1017.1 hPa | 0 mm | - | - | - |
| 1777654260 | 17.78° C | 59% | 1017.2 hPa | 0 mm | - | - | - |
| 1777653901 | 17.78° C | 65% | 1017.1 hPa | 0 mm | - | - | - |
| 1777653540 | 17.22° C | 61% | 1017.2 hPa | 0 mm | - | - | - |
| 1777653180 | 17.22° C | 59% | 1017.2 hPa | 0 mm | - | - | - |
| 1777652820 | 17.78° C | 58% | 1017.2 hPa | 0 mm | - | - | - |
| 1777652460 | 17.78° C | 62% | 1017.3 hPa | 0 mm | - | - | - |
| 1777652100 | 17.22° C | 59% | 1017.2 hPa | 0 mm | - | - | - |
| 1777651740 | 17.22° C | 61% | 1017.3 hPa | 0 mm | - | - | - |
| 1777651380 | 17.22° C | 61% | 1017.3 hPa | 0 mm | - | - | - |
| 1777651020 | 17.22° C | 62% | 1017.3 hPa | 0 mm | - | - | - |
| 1777650361 | 16.67° C | 63% | 1017.3 hPa | 0 mm | - | - | - |
| 1777650001 | 16.11° C | 61% | 1017.2 hPa | 0 mm | - | - | - |
| 1777649641 | 16.11° C | 62% | 1017.3 hPa | 0 mm | - | - | - |
| 1777649281 | 16.11° C | 63% | 1017.3 hPa | 0 mm | - | - | - |
| 1777648921 | 16.11° C | 64% | 1017.3 hPa | 0 mm | - | - | - |
| 1777648201 | 15.56° C | 66% | 1017.3 hPa | 0 mm | - | - | - |
| 1777647841 | 15.56° C | 66% | 1017.2 hPa | 0 mm | - | - | - |
| 1777647481 | 15° C | 63% | 1017.3 hPa | 0 mm | - | - | - |
| 1777647121 | 15° C | 64% | 1017.2 hPa | 0 mm | - | - | - |
| 1777646761 | 14.44° C | 70% | 1017 hPa | 0 mm | - | - | - |
| 1777646401 | 14.44° C | 69% | 1017 hPa | 0 mm | - | - | - |
| 1777646041 | 13.89° C | 69% | 1017 hPa | 0 mm | - | - | - |
| 1777645681 | 13.89° C | 66% | 1016.9 hPa | 0 mm | - | - | - |
| 1777645321 | 13.89° C | 67% | 1016.1 hPa | 0 mm | - | - | - |
* Rain latest hour (hover to see other rain measurements)
** Current wind speed in m/s (hover to see current wind gust speed)